METEOR 2-11 DEB

Satellite information

Favourite Embed

Satellite Type and Status

DEBRISIN ORBIT

Key statistics

Satellite METEOR 2-11 DEB at a glance.

Uptime

14978

Days in orbit

Revolutions

≈ 14.0

Per day

Orbit

LEO

Low Earth Orbit

Inclination

82.5

Latest

Satellite identification and parameters

Extended collection of information and parameters for METEOR 2-11 DEB.

Object identification

Identified? True

Debris? True

Object name: METEOR 2-11 DEB

International designator: 1984-072C

Object number (NORAD): 40317

Object ID (CCSDS): 40317

Country: COMMONWEALTH OF INDEPENDENT STATES (CIS)

Current information (Y/N): Y

RCS size: SMALL

Orbital parameters

Period: 103.014 minutes

Inclination: 82.5189 deg

SMA: 7279.335 km

Apoapsis: 907.44 km

Periapsis: 894.959 km

RAAN: 292.2659 deg

Eccentricy: 0.0008573

Argument of periapsis: 340.727 deg

Mean anomaly: 19.3572 deg

Mean motion: 13.97865001 rev/day

Mean motion (dot): 0.00002087 rev/day2

B* drag term: 0.0014637 1/REarth

Two-line elements (TLE)

Creation date: July 1, 2025, 10:26 p.m.

Reference frame: TEME

Reference center: EARTH

Epoch: July 1, 2025, 2:45 p.m. UTC

TLE line 0: 0 METEOR 2-11 DEB

TLE line 1: 1 40317U 84072C 25182.61500968 .00002087 00000-0 14637-2 0 9999

TLE line 2: 2 40317 82.5189 292.2659 0008573 340.7270 19.3572 13.97865001537003

Live tracking on map

Real-time ground track for satellite METEOR 2-11 DEB.

In-orbit conjunctions

A list of the most updated potential collisions computed for object METEOR 2-11 DEB.

Target Orbit TCA Probability of collision Miss distance Type
CZ-6A DEB SSO 2024-11-14 21:19:44 0.0001188664 681.0 (m) DEBRIS
COSMOS 1275 DEB LEO 2024-11-14 01:29:18 0.0001574076 649.0 (m) DEBRIS
CZ-6A DEB SSO 2024-11-07 22:42:37 0.0002291175 476.0 (m) DEBRIS

Associated space launch

Second generation soviet meteorological satellite

METEOR 2-11 DEB was lifted into orbit during the mission ‘Tsiklon-3 | Meteor-2 11’, on board a Tsiklon-3 space rocket.

The launch took place on July 5, 1984, 3:35 a.m. from 32/2.

For more information about the launch, click the button.

Launch to space Tsiklon-3 | Meteor-2 11
Tsiklon-3 | Meteor-2 11

Agency: N/A

Status: Launch Successful

Launch date: July 5, 1984, 3:35 a.m. UTC

Rocket: Tsiklon-3

Launch pad: 32/2

Location: Plesetsk Cosmodrome, Russian Federation

...

Latest news about this satellite

There are no fresh news available about this satellite. Check back as we update our databases every day.


Newsletter sign-up

Weekly statistics, charts and insights to help you stay on top of the space industry.